Tracking 18876 objects as of 15-Dec-2017
HD Live streaming from Space Station
objects crossing your sky now

YAOGAN 8

Track YAOGAN 8 now!
10-day predictions
YAOGAN 8 is classified as:


NORAD ID: 36121
Int'l Code: 2009-072A
Perigee: 1,233.4 km
Apogee: 1,266.5 km
Inclination: 100.1 °
Period: 110.4 minutes
Semi major axis: 7620 km
RCS: 3.113 m2 (large)
Launch date: December 15, 2009
Source: People's Republic of China (PRC)
Launch site: Taiyaun Space Center, China (TSC)

YAOGAN 8 is a remote-sensing satellite.
aabbcc
Your satellite tracking list
Your tracking list is empty




NASA's NSSDC Master Catalog

Two Line Element Set (TLE):
1 36121U 09072A   17348.92635517 +.00000394 +00000-0 +13456-2 0  9999
2 36121 100.0781 351.9687 0021750 118.2501 242.0805 13.04933877383509
Source of the keplerian elements: AFSPC